#timestamp,LO_Frequency,Hit,StdDev 
1539115215.3,286047006.0,N
1539115235.1,286047005.7,N
1539115255.9,286047005.0,N
1539115275.7,286047006.8,N
1539115295.5,286047006.9,N
1539115315.4,286047006.9,N
1539115335.2,286047006.4,N
1539115355.1,286047007.3,N
1539115356.0,286047007.3,N
1539115375.8,286047006.2,N
1539115395.6,286047008.7,Y
1539115415.5,286047005.6,P
1539115435.3,286047006.0,P
1539115455.1,286047005.4,P
1539115475.9,286047007.2,Y
1539115495.7,286047002.8,P
1539115515.6,286047002.0,N
1539115535.4,286047002.2,N
1539115555.2,286047001.6,N
1539115575.1,286047002.4,N
1539115576.0,286047002.4,N
1539115595.8,286047001.7,N
1539115615.7,286047003.8,Y
1539115635.5,286047001.4,P
1539115655.3,286047003.8,P
1539115675.2,286047003.8,P
1539115695.0,286047005.0,Y
1539115695.9,286047005.0,P
1539115715.7,286047001.7,N
1539115735.6,286047001.6,N
1539115755.4,286047003.5,N
1539115775.3,286047003.3,N
1539115795.1,286047003.0,N
1539115815.8,286047002.9,N
1539115835.7,286047006.0,Y
1539115855.5,286047002.1,P
1539115875.4,286047001.7,P
1539115895.2,286047004.4,P
1539115915.0,286047003.3,Y
1539115916.0,286047003.3,P
1539115935.8,286047001.9,P
1539115985.7,286047001.9,E
1539115995.6,286047001.9,N
1539116015.4,286047001.5,P
1539116035.3,286047001.7,P
1539116055.1,286047001.3,Y
1539116056.0,286047001.3,P
1539116075.8,286047002.3,P
1539116095.7,286046999.9,N
1539116115.5,286047002.7,Y
1539116135.4,286047001.2,P
1539116155.2,286047001.2,P
1539116175.0,286047001.0,P
1539116175.9,286047001.0,Y
1539116195.8,286046999.4,P
1539116215.6,286046999.0,N
1539116235.4,286047000.1,N
1539116255.3,286047001.1,N
1539116275.1,286047000.3,N
1539116295.9,286047000.5,N
1539116315.7,286047002.4,Y
1539116335.5,286046999.8,P
1539116355.4,286047002.1,P
1539116375.2,286047002.8,N
1539116395.1,286047004.1,Y
1539116396.0,286047004.1,P
1539116415.8,286047004.3,N
1539116435.6,286047004.0,N
1539116455.5,286047001.5,N
1539116475.3,286047004.2,Y
1539116495.1,286047001.1,P
1539116515.9,286047002.7,N
1539116535.7,286046999.8,N
1539116555.6,286047000.2,N
1539116575.4,286047000.1,N
1539116595.2,286047000.2,N
1539116615.1,286047000.1,N
1539116616.0,286047000.1,N
1539116635.8,286047000.3,N
1539116655.6,286047000.9,N
1539116675.5,286047000.7,N
1539116695.3,286047001.0,N
1539116715.2,286047000.5,N
1539116735.9,286047001.9,N
1539116755.7,286047002.2,N
1539116775.6,286047002.3,N
1539116795.4,286047001.7,N
1539116815.3,286047003.5,Y
1539116835.1,286047004.4,P
1539116836.0,286047004.4,N
1539116855.8,286047001.6,N
1539116875.7,286047003.9,N
1539116895.5,286047004.2,N
1539116915.3,286047003.7,N
1539116935.2,286047003.6,N
1539116955.0,286047005.7,Y
1539116955.9,286047005.7,P
1539116975.8,286047011.9,P
1539116995.6,286047002.1,N
1539117015.4,286047002.3,N
1539117035.3,286047002.5,N
1539117055.1,286047001.7,N
1539117075.8,286047003.4,N
1539117095.7,286047003.0,N
1539117115.5,286047005.6,N
1539117135.4,286047005.7,N
1539117155.2,286047005.4,N
1539117175.0,286047004.9,N
1539117175.9,286047004.9,N
1539117195.8,286047004.8,N
1539117215.6,286047004.8,N
1539117235.5,286047005.9,N
1539117255.3,286047007.5,Y
1539117275.1,286047002.8,P
1539117295.9,286047002.4,N
1539117315.7,286047004.4,P
1539117335.6,286047004.0,Y
1539117355.4,286046999.0,P
1539117375.2,286046999.0,N
1539117395.1,286046998.9,N
1539117396.0,286046998.9,N
1539117415.8,286046997.0,N
1539117435.6,286046998.7,N
1539117455.5,286046998.3,N
1539117475.3,286046996.8,N
1539117495.2,286046999.1,N
1539117515.9,286046999.4,N
1539117535.7,286046999.6,N
1539117555.6,286046998.1,N
1539117575.4,286047000.7,N
1539117595.2,286047000.3,N
1539117615.1,286047000.3,N
1539117616.0,286047000.3,N
1539117635.8,286047000.3,N
1539117655.7,286047002.3,N
1539117675.5,286047002.5,N
1539117695.3,286047003.8,N
1539117715.2,286047002.9,N
1539117735.0,286047004.9,N
1539117735.9,286047004.9,N
1539117755.8,286047005.0,N
1539117775.6,286047006.7,N
1539117795.4,286047006.4,N
1539117815.3,286047007.0,N
1539117835.1,286047006.1,N
1539117836.0,286047006.1,N
1539117855.8,286047006.9,N
1539117875.7,286047006.8,N
1539117895.5,286047006.1,N
1539117915.4,286047010.3,Y
1539117935.2,286047006.2,P
1539117955.0,286047008.7,P
1539117955.9,286047008.7,P
1539118005.8,286047010.8,E
1539118015.7,286047005.7,N
1539118035.6,286046999.6,P
1539118055.4,286046999.6,N
1539118075.2,286046998.4,N
1539118095.1,286046999.5,N
1539118096.0,286046999.5,N
1539118115.8,286046998.5,N
1539118135.7,286047001.0,N
1539118155.5,286046999.7,N
1539118175.3,286047000.0,N
1539118195.2,286047002.4,N
1539118215.9,286047002.5,N
1539118235.7,286047001.6,N
1539118255.6,286047004.4,N
1539118275.4,286047001.3,N
1539118295.3,286047003.2,N
1539118315.1,286047005.0,N
1539118316.0,286047005.0,N
1539118335.8,286047006.8,N
1539118355.7,286047006.9,N
1539118375.5,286047007.1,N
1539118395.3,286047004.6,N
1539118415.2,286047008.7,Y
1539118435.0,286047004.6,P
1539118435.9,286047004.6,P
1539118455.8,286047004.8,P
1539118475.6,286047004.7,Y
1539118495.4,286047002.8,P
1539118515.3,286047002.7,P
1539118535.1,286047004.3,P
1539118555.9,286047003.2,Y
1539118575.7,286047000.1,P
1539118595.5,286047000.1,N
1539118615.4,286047002.0,N
1539118635.2,286047005.5,Y
1539118655.0,286047003.8,P
1539118655.9,286047003.8,P
1539118675.8,286047003.7,P
1539118695.6,286047005.1,Y
1539118715.5,286046999.8,P
1539118735.3,286047002.3,N
1539118755.1,286047003.7,N
1539118775.9,286047005.6,Y
1539118795.7,286047002.3,P
